| time (UTC) | temp F | wind direction | speed knots | gust knots | rain 1hr in | rain 24hr in | rain mn in | humidity % | barometer mb |
| 20260504044058 | 44 | 0 | 0.0 | 0.0 | 0.00 | 0.00 | 0.00 | 69 | 1012.5 |
| 20260504043602 | 44 | 0 | 0.0 | 0.0 | 0.00 | 0.00 | 0.00 | 69 | 1012.5 |
| 20260504043109 | 44 | 0 | 0.0 | 0.0 | 0.00 | 0.00 | 0.00 | 68 | 1012.4 |
| 20260504042557 | 44 | 0 | 0.0 | 0.0 | 0.00 | 0.00 | 0.00 | 68 | 1012.3 |
| 20260504042100 | 44 | 0 | 0.0 | 0.0 | 0.00 | 0.00 | 0.00 | 68 | 1012.2 |
| 20260504041558 | 44 | 0 | 0.0 | 0.0 | 0.00 | 0.00 | 0.00 | 67 | 1012.1 |
| 20260504041054 | 45 | 0 | 0.0 | 0.0 | 0.00 | 0.00 | 0.00 | 68 | 1012.1 |
| 20260504040554 | 45 | 0 | 0.0 | 0.0 | 0.00 | 0.00 | 0.00 | 66 | 1012.1 |
| 20260504040104 | 45 | 0 | 0.0 | 0.0 | 0.00 | 0.00 | 0.00 | 68 | 1012.0 |
| 20260504035555 | 45 | 0 | 0.0 | 0.0 | 0.00 | 0.00 | 0.00 | 67 | 1012.0 |
| 20260504035058 | 45 | 0 | 0.0 | 0.0 | 0.00 | 0.00 | 0.00 | 67 | 1012.0 |
| 20260504034618 | 45 | 0 | 0.0 | 0.0 | 0.00 | 0.00 | 0.00 | 67 | 1012.0 |
| 20260504034058 | 45 | 0 | 0.0 | 0.0 | 0.00 | 0.00 | 0.00 | 65 | 1012.1 |
| 20260504033554 | 45 | 0 | 0.0 | 0.0 | 0.00 | 0.00 | 0.00 | 64 | 1012.0 |
| 20260504033103 | 46 | 0 | 0.0 | 0.0 | 0.00 | 0.00 | 0.00 | 62 | 1012.0 |
| 20260504032556 | 46 | 0 | 0.0 | 0.0 | 0.00 | 0.00 | 0.00 | 62 | 1012.0 |
| 20260504032059 | 46 | 0 | 0.0 | 0.0 | 0.00 | 0.00 | 0.00 | 63 | 1012.1 |
| 20260504031604 | 46 | 0 | 0.0 | 0.0 | 0.00 | 0.00 | 0.00 | 63 | 1012.0 |
| 20260504031101 | 46 | 0 | 0.0 | 0.0 | 0.00 | 0.00 | 0.00 | 63 | 1012.0 |
| 20260504030555 | 46 | 0 | 0.0 | 0.0 | 0.00 | 0.00 | 0.00 | 63 | 1011.9 |
| 20260504030058 | 46 | 0 | 0.0 | 0.0 | 0.00 | 0.00 | 0.00 | 62 | 1011.9 |
| 20260504025558 | 46 | 0 | 0.0 | 0.0 | 0.00 | 0.00 | 0.00 | 63 | 1011.9 |
| 20260504025100 | 46 | 0 | 0.0 | 0.0 | 0.00 | 0.00 | 0.00 | 61 | 1012.0 |
| 20260504024559 | 47 | 0 | 0.0 | 0.0 | 0.00 | 0.00 | 0.00 | 62 | 1011.9 |
| 20260504024055 | 47 | 0 | 0.0 | 0.0 | 0.00 | 0.00 | 0.00 | 61 | 1012.0 |
| 20260504023558 | 47 | 0 | 0.0 | 0.0 | 0.00 | 0.00 | 0.00 | 59 | 1012.0 |
| 20260504023057 | 47 | 0 | 0.0 | 1.7 | 0.00 | 0.00 | 0.00 | 59 | 1012.0 |
| 20260504022626 | 47 | 0 | 0.0 | 1.7 | 0.00 | 0.00 | 0.00 | 59 | 1012.0 |
| 20260504022055 | 47 | 0 | 0.0 | 0.0 | 0.00 | 0.00 | 0.00 | 58 | 1012.0 |
| 20260504021602 | 48 | 0 | 0.0 | 0.0 | 0.00 | 0.00 | 0.00 | 57 | 1012.0 |
| 20260504021055 | 48 | 0 | 0.0 | 0.0 | 0.00 | 0.00 | 0.00 | 58 | 1012.0 |
| 20260504020558 | 48 | 0 | 0.0 | 0.0 | 0.00 | 0.00 | 0.00 | 57 | 1011.9 |
| 20260504020112 | 48 | 0 | 0.0 | 0.0 | 0.00 | 0.00 | 0.00 | 56 | 1012.0 |
| 20260504015558 | 49 | 0 | 0.0 | 0.0 | 0.00 | 0.00 | 0.00 | 56 | 1012.0 |
| 20260504015055 | 49 | 0 | 0.0 | 0.0 | 0.00 | 0.00 | 0.00 | 56 | 1012.0 |
| 20260504014606 | 49 | 0 | 0.0 | 0.9 | 0.00 | 0.00 | 0.00 | 54 | 1011.9 |
| 20260504014054 | 49 | 0 | 0.0 | 0.9 | 0.00 | 0.00 | 0.00 | 53 | 1011.9 |
| 20260504013555 | 50 | 0 | 0.0 | 1.7 | 0.00 | 0.00 | 0.00 | 53 | 1011.8 |
| 20260504013107 | 50 | 0 | 0.0 | 1.7 | 0.00 | 0.00 | 0.00 | 51 | 1011.8 |
| 20260504012559 | 50 | 0 | 0.0 | 1.7 | 0.00 | 0.00 | 0.00 | 50 | 1011.7 |
| 20260504012055 | 51 | 0 | 0.0 | 1.7 | 0.00 | 0.00 | 0.00 | 49 | 1011.7 |
| 20260504011600 | 52 | 0 | 0.0 | 0.0 | 0.00 | 0.00 | 0.00 | 50 | 1011.6 |
| 20260504011100 | 52 | 0 | 0.0 | 0.0 | 0.00 | 0.00 | 0.00 | 48 | 1011.5 |
| 20260504010557 | 53 | 0 | 0.0 | 0.0 | 0.00 | 0.00 | 0.00 | 45 | 1011.4 |
| 20260504010059 | 53 | 0 | 0.0 | 0.0 | 0.00 | 0.00 | 0.00 | 44 | 1011.3 |
| 20260504005555 | 54 | 0 | 0.0 | 0.0 | 0.00 | 0.00 | 0.00 | 45 | 1011.2 |
| 20260504005057 | 54 | 0 | 0.0 | 0.0 | 0.00 | 0.00 | 0.00 | 40 | 1011.3 |
| 20260504004615 | 55 | 0 | 0.0 | 0.0 | 0.00 | 0.00 | 0.00 | 40 | 1011.1 |
| 20260504004055 | 55 | 0 | 0.0 | 0.0 | 0.00 | 0.00 | 0.00 | 40 | 1011.1 |
| 20260504003558 | 56 | 0 | 0.0 | 0.0 | 0.00 | 0.00 | 0.00 | 40 | 1011.0 |
| 20260504003058 | 56 | 0 | 0.0 | 0.0 | 0.00 | 0.00 | 0.00 | 37 | 1011.1 |
| 20260504002605 | 56 | 0 | 0.0 | 0.0 | 0.00 | 0.00 | 0.00 | 37 | 1011.0 |
| 20260504002055 | 57 | 0 | 0.0 | 0.0 | 0.00 | 0.00 | 0.00 | 36 | 1011.0 |
| 20260504001601 | 57 | 0 | 0.0 | 1.7 | 0.00 | 0.00 | 0.00 | 34 | 1010.9 |
| 20260504001058 | 58 | 0 | 0.0 | 1.7 | 0.00 | 0.00 | 0.00 | 34 | 1010.7 |
| 20260504000554 | 58 | 0 | 0.0 | 1.7 | 0.00 | 0.00 | 0.00 | 33 | 1010.7 |
| 20260503235557 | 58 | 0 | 0.0 | 1.7 | 0.00 | 0.00 | 0.00 | 32 | 1010.7 |
| 20260503235055 | 58 | 19 | 0.0 | 1.7 | 0.00 | 0.00 | 0.00 | 32 | 1010.4 |
| 20260503234558 | 59 | 21 | 0.0 | 2.6 | 0.00 | 0.00 | 0.00 | 32 | 1010.4 |
| 20260503234055 | 59 | 22 | 0.0 | 2.6 | 0.00 | 0.00 | 0.00 | 31 | 1010.4 |
| 20260503233555 | 59 | 22 | 0.0 | 2.6 | 0.00 | 0.00 | 0.00 | 31 | 1010.4 |
| 20260503233056 | 59 | 136 | 0.0 | 2.6 | 0.00 | 0.00 | 0.00 | 30 | 1010.3 |
| 20260503232558 | 59 | 0 | 0.9 | 4.3 | 0.00 | 0.00 | 0.00 | 30 | 1010.3 |
| 20260503232055 | 60 | 245 | 0.9 | 4.3 | 0.00 | 0.00 | 0.00 | 30 | 1010.3 |
| 20260503231601 | 60 | 206 | 0.9 | 3.5 | 0.00 | 0.00 | 0.00 | 29 | 1010.3 |
| 20260503231115 | 60 | 188 | 0.9 | 4.3 | 0.00 | 0.00 | 0.00 | 29 | 1010.3 |
| 20260503230557 | 60 | 247 | 0.9 | 4.3 | 0.00 | 0.00 | 0.00 | 28 | 1010.2 |
| 20260503230106 | 61 | 216 | 0.0 | 4.3 | 0.00 | 0.00 | 0.00 | 28 | 1010.2 |
| 20260503225558 | 61 | 234 | 0.9 | 4.3 | 0.00 | 0.00 | 0.00 | 28 | 1010.2 |
| 20260503225058 | 61 | 312 | 0.9 | 8.7 | 0.00 | 0.00 | 0.00 | 27 | 1010.0 |
| 20260503224604 | 61 | 250 | 1.7 | 8.7 | 0.00 | 0.00 | 0.00 | 27 | 1010.1 |
| 20260503224058 | 61 | 227 | 1.7 | 6.1 | 0.00 | 0.00 | 0.00 | 28 | 1010.0 |
| 20260503223555 | 61 | 252 | 1.7 | 6.1 | 0.00 | 0.00 | 0.00 | 27 | 1010.0 |
| 20260503223059 | 61 | 180 | 0.9 | 7.8 | 0.00 | 0.00 | 0.00 | 27 | 1010.0 |
| 20260503222557 | 61 | 0 | 0.9 | 7.8 | 0.00 | 0.00 | 0.00 | 27 | 1010.0 |
| 20260503222057 | 61 | 232 | 0.9 | 7.8 | 0.00 | 0.00 | 0.00 | 27 | 1010.1 |
| 20260503221556 | 60 | 196 | 2.6 | 8.7 | 0.00 | 0.00 | 0.00 | 27 | 1010.0 |
| 20260503221056 | 60 | 244 | 2.6 | 8.7 | 0.00 | 0.00 | 0.00 | 26 | 1010.1 |
| 20260503220555 | 61 | 262 | 2.6 | 7.0 | 0.00 | 0.00 | 0.00 | 27 | 1010.1 |
| 20260503220101 | 61 | 174 | 2.6 | 7.0 | 0.00 | 0.00 | 0.00 | 26 | 1010.0 |
| 20260503215555 | 61 | 257 | 2.6 | 7.0 | 0.00 | 0.00 | 0.00 | 27 | 1010.1 |
| 20260503215055 | 60 | 215 | 1.7 | 6.1 | 0.00 | 0.00 | 0.00 | 27 | 1010.0 |
| 20260503214557 | 60 | 222 | 1.7 | 8.7 | 0.00 | 0.00 | 0.00 | 26 | 1010.1 |
| 20260503214055 | 60 | 171 | 2.6 | 8.7 | 0.00 | 0.00 | 0.00 | 25 | 1010.2 |
| 20260503213558 | 61 | 175 | 2.6 | 7.0 | 0.00 | 0.00 | 0.00 | 25 | 1010.2 |
| 20260503213103 | 61 | 240 | 2.6 | 7.8 | 0.00 | 0.00 | 0.00 | 27 | 1010.2 |
| 20260503212558 | 61 | 213 | 1.7 | 7.8 | 0.00 | 0.00 | 0.00 | 26 | 1010.1 |
| 20260503212057 | 60 | 274 | 2.6 | 10.4 | 0.00 | 0.00 | 0.00 | 27 | 1010.1 |
| 20260503211612 | 60 | 196 | 2.6 | 10.4 | 0.00 | 0.00 | 0.00 | 26 | 1010.0 |
| 20260503211058 | 60 | 183 | 2.6 | 10.4 | 0.00 | 0.00 | 0.00 | 26 | 1010.0 |
| 20260503210558 | 60 | 188 | 2.6 | 12.2 | 0.00 | 0.00 | 0.00 | 27 | 1010.1 |
| 20260503210057 | 60 | 225 | 3.5 | 12.2 | 0.00 | 0.00 | 0.00 | 28 | 1010.0 |
| 20260503205556 | 60 | 310 | 2.6 | 8.7 | 0.00 | 0.00 | 0.00 | 28 | 1009.9 |
| 20260503205056 | 60 | 146 | 1.7 | 7.0 | 0.00 | 0.00 | 0.00 | 30 | 1009.8 |
| 20260503204557 | 60 | 114 | 1.7 | 7.0 | 0.00 | 0.00 | 0.00 | 27 | 1010.0 |
| 20260503204054 | 60 | 183 | 2.6 | 7.0 | 0.00 | 0.00 | 0.00 | 28 | 1010.1 |
| 20260503203555 | 59 | 329 | 2.6 | 6.1 | 0.00 | 0.00 | 0.00 | 28 | 1010.1 |
| 20260503203057 | 60 | 250 | 1.7 | 6.1 | 0.00 | 0.00 | 0.00 | 27 | 1009.9 |
| 20260503202556 | 60 | 290 | 1.7 | 7.0 | 0.00 | 0.00 | 0.00 | 29 | 1010.0 |
| 20260503202059 | 59 | 308 | 2.6 | 7.0 | 0.00 | 0.00 | 0.00 | 28 | 1010.1 |
| 20260503201557 | 59 | 53 | 1.7 | 7.0 | 0.00 | 0.00 | 0.00 | 29 | 1010.2 |
| 20260503201056 | 60 | 294 | 1.7 | 7.8 | 0.00 | 0.00 | 0.00 | 27 | 1010.2 |
| 20260503200555 | 60 | 188 | 2.6 | 7.8 | 0.00 | 0.00 | 0.00 | 27 | 1010.2 |
| 20260503200113 | 60 | 157 | 1.7 | 7.8 | 0.00 | 0.00 | 0.00 | 27 | 1010.1 |
| 20260503195558 | 60 | 238 | 2.6 | 7.0 | 0.00 | 0.00 | 0.00 | 28 | 1010.1 |
| 20260503195055 | 59 | 193 | 1.7 | 4.3 | 0.00 | 0.00 | 0.00 | 30 | 1010.2 |
| 20260503194604 | 59 | 209 | 1.7 | 9.6 | 0.00 | 0.00 | 0.00 | 28 | 1010.2 |
| 20260503194059 | 58 | 39 | 4.3 | 9.6 | 0.00 | 0.00 | 0.00 | 30 | 1010.3 |
| 20260503193559 | 59 | 243 | 4.3 | 8.7 | 0.00 | 0.00 | 0.00 | 28 | 1010.3 |
| 20260503193102 | 59 | 360 | 2.6 | 7.0 | 0.00 | 0.00 | 0.00 | 29 | 1010.6 |
| 20260503192554 | 59 | 360 | 2.6 | 9.6 | 0.00 | 0.00 | 0.00 | 29 | 1010.6 |
| 20260503192054 | 58 | 240 | 3.5 | 9.6 | 0.00 | 0.00 | 0.00 | 30 | 1010.7 |
| 20260503191605 | 58 | 229 | 1.7 | 9.6 | 0.00 | 0.00 | 0.00 | 31 | 1010.6 |
| 20260503191058 | 58 | 295 | 4.3 | 9.6 | 0.00 | 0.00 | 0.00 | 30 | 1010.7 |
| 20260503190556 | 58 | 336 | 2.6 | 7.8 | 0.00 | 0.00 | 0.00 | 29 | 1010.5 |
| 20260503190056 | 58 | 172 | 1.7 | 9.6 | 0.00 | 0.00 | 0.00 | 33 | 1010.8 |
| 20260503185556 | 58 | 205 | 2.6 | 9.6 | 0.00 | 0.00 | 0.00 | 31 | 1010.9 |
| 20260503185056 | 58 | 211 | 2.6 | 10.4 | 0.00 | 0.00 | 0.00 | 32 | 1010.8 |
| 20260503184613 | 58 | 14 | 2.6 | 10.4 | 0.00 | 0.00 | 0.00 | 32 | 1010.9 |
| 20260503184055 | 58 | 259 | 2.6 | 11.3 | 0.00 | 0.00 | 0.00 | 34 | 1010.8 |
| 20260503183556 | 57 | 325 | 2.6 | 11.3 | 0.00 | 0.00 | 0.00 | 32 | 1010.8 |
| 20260503183100 | 57 | 107 | 3.5 | 7.8 | 0.00 | 0.00 | 0.00 | 33 | 1010.9 |
| 20260503182555 | 57 | 288 | 2.6 | 8.7 | 0.00 | 0.00 | 0.00 | 34 | 1010.9 |
| 20260503182055 | 56 | 202 | 2.6 | 8.7 | 0.00 | 0.00 | 0.00 | 32 | 1010.9 |
| 20260503181613 | 56 | 142 | 3.5 | 9.6 | 0.00 | 0.00 | 0.00 | 33 | 1011.0 |
| 20260503181101 | 56 | 40 | 3.5 | 9.6 | 0.00 | 0.00 | 0.00 | 31 | 1011.0 |
| 20260503180555 | 56 | 276 | 3.5 | 7.0 | 0.00 | 0.00 | 0.00 | 34 | 1011.0 |
| 20260503180116 | 56 | 235 | 2.6 | 7.8 | 0.00 | 0.00 | 0.00 | 33 | 1011.1 |
| 20260503175556 | 56 | 298 | 2.6 | 9.6 | 0.00 | 0.00 | 0.00 | 36 | 1011.1 |
| 20260503175055 | 55 | 254 | 2.6 | 9.6 | 0.00 | 0.00 | 0.00 | 37 | 1011.3 |
| 20260503174600 | 55 | 272 | 1.7 | 7.8 | 0.00 | 0.00 | 0.00 | 37 | 1011.4 |
| 20260503174056 | 55 | 237 | 2.6 | 7.8 | 0.00 | 0.00 | 0.00 | 39 | 1011.3 |
| 20260503173556 | 54 | 255 | 3.5 | 7.8 | 0.00 | 0.00 | 0.00 | 41 | 1011.4 |
| 20260503173106 | 54 | 254 | 1.7 | 7.8 | 0.00 | 0.00 | 0.00 | 38 | 1011.3 |
| 20260503172556 | 54 | 213 | 3.5 | 7.8 | 0.00 | 0.00 | 0.00 | 37 | 1011.4 |
| 20260503172055 | 55 | 240 | 2.6 | 7.8 | 0.00 | 0.00 | 0.00 | 37 | 1011.4 |
| 20260503171556 | 54 | 198 | 2.6 | 7.8 | 0.00 | 0.00 | 0.00 | 36 | 1011.4 |
| 20260503171055 | 53 | 232 | 2.6 | 6.1 | 0.00 | 0.00 | 0.00 | 38 | 1011.6 |
| 20260503170558 | 53 | 285 | 0.9 | 7.8 | 0.00 | 0.00 | 0.00 | 38 | 1011.5 |
| 20260503150557 | 50 | 294 | 3.5 | 6.1 | 0.00 | 0.00 | 0.00 | 34 | 1012.0 |
| 20260503150108 | 50 | 321 | 1.7 | 7.0 | 0.00 | 0.00 | 0.00 | 37 | 1012.0 |
| 20260503131056 | 49 | 220 | 1.7 | 9.6 | 0.00 | 0.00 | 0.00 | 51 | 1011.8 |
| 20260503130559 | 49 | 24 | 2.6 | 9.6 | 0.00 | 0.00 | 0.00 | 51 | 1011.9 |
| 20260503130106 | 48 | 286 | 2.6 | 7.8 | 0.00 | 0.00 | 0.00 | 51 | 1011.9 |
| 20260503110556 | 44 | 221 | 1.7 | 4.3 | 0.00 | 0.00 | 0.00 | 57 | 1011.4 |
| 20260503110108 | 44 | 206 | 0.9 | 4.3 | 0.00 | 0.00 | 0.00 | 57 | 1011.3 |
| 20260503081556 | 46 | 293 | 1.7 | 3.5 | 0.00 | 0.01 | 0.00 | 53 | 1010.4 |
| 20260503081055 | 46 | 232 | 0.0 | 2.6 | 0.00 | 0.01 | 0.00 | 53 | 1010.4 |
| 20260503080557 | 46 | 0 | 0.9 | 2.6 | 0.00 | 0.01 | 0.00 | 52 | 1010.3 |
| 20260503080105 | 46 | 0 | 0.0 | 2.6 | 0.00 | 0.01 | 0.00 | 53 | 1010.4 |
| 20260503072555 | 46 | 258 | 1.7 | 3.5 | 0.00 | 0.01 | 0.00 | 52 | 1010.3 |
| 20260503072055 | 46 | 283 | 0.9 | 2.6 | 0.00 | 0.01 | 0.00 | 53 | 1010.2 |
| 20260503071602 | 46 | 269 | 0.9 | 2.6 | 0.00 | 0.01 | 0.00 | 52 | 1010.2 |
| 20260503071102 | 46 | 245 | 0.9 | 2.6 | 0.00 | 0.01 | 0.00 | 52 | 1010.2 |
| 20260503070558 | 46 | 0 | 0.9 | 2.6 | 0.00 | 0.01 | 0.00 | 52 | 1010.3 |
| 20260503070105 | 46 | 215 | 0.0 | 1.7 | 0.00 | 0.01 | 0.00 | 52 | 1010.3 |
| 20260503060104 | 48 | 360 | 0.9 | 3.5 | 0.00 | 0.01 | 0.00 | 47 | 1010.6 |
| 20260503055100 | 48 | 0 | 0.9 | 4.3 | 0.00 | 0.01 | 0.00 | 47 | 1010.5 |
| 20260503054602 | 48 | 360 | 0.9 | 4.3 | 0.00 | 0.01 | 0.00 | 46 | 1010.6 |
| 20260503054056 | 48 | 360 | 1.7 | 3.5 | 0.00 | 0.01 | 0.00 | 46 | 1010.6 |
| 20260503053556 | 49 | 247 | 0.9 | 2.6 | 0.00 | 0.01 | 0.00 | 46 | 1010.7 |
| 20260503053056 | 49 | 360 | 0.9 | 2.6 | 0.00 | 0.01 | 0.00 | 46 | 1010.7 |
| 20260503052556 | 49 | 360 | 0.0 | 2.6 | 0.00 | 0.01 | 0.00 | 45 | 1010.8 |
| 20260503052058 | 49 | 0 | 0.0 | 5.2 | 0.00 | 0.01 | 0.00 | 45 | 1010.9 |
| 20260503051559 | 49 | 219 | 1.7 | 6.1 | 0.00 | 0.01 | 0.00 | 44 | 1011.1 |
| 20260503051056 | 49 | 218 | 1.7 | 6.1 | 0.00 | 0.01 | 0.00 | 44 | 1011.0 |
| 20260503050556 | 49 | 293 | 1.7 | 4.3 | 0.00 | 0.01 | 0.00 | 44 | 1010.9 |
| 20260503050057 | 49 | 0 | 0.9 | 3.5 | 0.00 | 0.01 | 0.00 | 44 | 1011.0 |
| 20260503045600 | 49 | 238 | 0.9 | 3.5 | 0.00 | 0.01 | 0.00 | 43 | 1011.0 |
| 20260503045059 | 49 | 219 | 0.9 | 4.3 | 0.00 | 0.01 | 0.00 | 44 | 1010.9 |
| 20260503044608 | 50 | 196 | 0.9 | 4.3 | 0.00 | 0.01 | 0.00 | 44 | 1011.1 |